Cloud_Cover
0 42 78 100 59 85 62 48 2 0 0 0 0 0 0 0 0 0 0 0 0 0 9 24 5 5 5 1 4 7 38 100 100 100 100 100 100 100 100 100 86 100 100 100
71 55 94 100 19 5 8 22 4 0 0 0 0 0 2 0 0 0 0 0 0 0 28 13 5 6 100 54 69 73 71 100 100 100 100 100 72 64 100 100 100 100 100 93
82 99 100 100 43 11 33 98 22 2 0 0 0 0 88 0 0 0 0 0 0 0 67 35 5 100 97 52 99 56 7 100 100 96 91 97 98 67 53 96 100 100 89 78
100 100 73 26 96 16 98 55 5 5 0 1 0 1 100 3 0 0 0 0 0 0 20 32 53 100 91 100 97 65 85 66 100 100 100 92 96 90 72 100 100 100 98 100
90 83 100 100 98 0 3 66 96 100 3 0 1 8 100 6 0 0 0 0 0 0 1 21 1 26 92 97 13 23 93 100 90 100 46 5 53 64 100 100 100 100 100 100
100 100 100 100 53 0 99 65 100 100 29 5 5 2 100 19 2 0 0 0 0 0 0 16 28 40 37 22 35 10 38 63 78 14 95 20 5 75 100 100 100 100 99 100
100 100 100 100 100 46 76 80 100 100 93 4 60 4 100 90 8 0 0 0 0 0 0 0 36 26 0 20 13 6 1 0 2 12 10 97 51 63 40 83 100 100 95 100
100 100 100 100 74 97 5 73 100 100 100 5 97 5 95 100 54 0 0 0 0 0 0 0 0 0 0 0 0 0 1 2 34 34 26 72 96 58 74 67 77 68 100 100
98 100 26 54 17 5 2 12 100 100 100 89 98 47 53 100 97 5 0 0 0 0 0 0 0 0 0 0 0 0 0 0 1 17 98 97 100 90 71 68 67 100 100 100
73 45 40 100 76 4 5 7 100 100 100 100 100 100 100 100 100 19 0 0 0 0 0 0 0 0 0 0 0 3 22 25 28 92 100 100 100 100 99 87 98 100 100 100
63 23 49 100 20 44 0 0 50 100 100 100 100 100 100 100 100 100 36 4 1 0 0 0 0 0 0 0 7 35 72 68 100 100 100 100 100 100 100 94 100 100 100 100
100 78 97 97 62 5 5 5 5 86 100 100 100 100 100 100 100 100 100 51 5 4 0 0 0 0 0 0 39 100 100 100 100 100 100 100 100 100 99 92 100 100 100 100
100 84 96 93 72 73 18 5 15 99 100 100 100 100 100 100 100 100 100 100 82 5 3 0 0 0 0 68 100 100 100 100 100 100 100 100 100 100 100 100 100 100 100 100
100 100 84 89 85 52 100 96 39 30 100 100 100 100 100 100 100 100 100 100 98 76 5 5 0 15 66 100 100 100 100 100 100 100 100 100 100 100 100 100 100 100 100 100
100 100 100 99 73 19 100 100 100 100 100 100 100 100 100 100 100 100 100 90 27 6 5 0 8 98 100 100 100 100 100 100 100 100 100 100 100 100 100 100 100 100 100 99
100 100 100 100 100 62 5 67 100 100 100 100 100 100 100 100 100 100 100 100 50 15 8 59 100 100 100 100 100 100 100 100 100 100 100 96 100 100 100 100 100 100 100 77
100 100 49 100 96 98 69 33 84 100 100 100 100 100 100 100 100 100 100 100 100 100 100 100 100 100 100 100 100 100 93 50 42 97 100 100 100 100 100 100 100 100 100 100
99 90 100 100 100 99 5 13 10 56 85 100 100 100 100 100 100 100 100 100 100 100 100 100 100 100 100 100 100 72 96 94 98 98 100 100 100 100 100 100 100 100 100 30
100 100 100 100 100 34 16 5 6 94 99 100 100 100 100 100 100 100 100 100 100 100 100 100 100 100 100 100 100 100 100 100 100 100 100 100 100 100 100 100 100 100 100 100
100 100 100 100 100 100 76 100 13 100 96 47 20 12 97 98 12 100 100 100 100 100 100 100 100 100 100 100 100 100 100 100 100 100 100 100 100 100 100 100 100 100 100 100
100 100 100 100 100 100 99 97 100 100 100 100 100 91 89 40 26 92 100 100 100 100 100 100 100 100 100 100 100 100 100 100 100 100 100 100 100 100 100 100 100 100 100 100
100 100 100 100 93 99 100 100 100 96 100 100 100 100 100 100 100 100 100 100 100 100 100 100 100 100 100 100 100 100 100 100 100 100 100 100 100 100 100 100 100 100 100 99
100 100 100 98 100 100 100 100 100 99 100 100 100 100 100 100 100 100 100 100 100 100 100 100 100 100 100 100 100 100 100 100 100 100 100 100 100 100 100 100 100 100 92 27
100 93 100 100 99 76 100 100 100 100 100 100 100 100 100 100 100 100 100 100 100 100 100 100 100 100 99 100 100 100 98 100 100 100 100 100 100 100 100 100 100 100 100 100
100 100 100 100 100 100 98 100 100 100 100 100 100 100 100 100 100 100 100 100 100 100 100 100 86 34 57 81 77 94 81 88 88 76 100 100 100 100 100 87 63 100 82 24
100 100 100 100 100 100 100 100 100 100 100 100 100 100 100 100 100 100 100 100 100 100 100 86 44 73 66 97 100 100 85 88 65 38 35 8 20 34 40 32 8 5 5 5